Location: Ladrillo (historical)
(32.8195°N, 117.2231°W)
Time: 20:06:50
(UTC+00:00)

MINOTAUR 4 R/B - Pass Details

Date: 04 October 2022
Orbit: 458 x 464 km, 98.0° (Epoch: 06 December)

Event Time Altitude Azimuth Distance (km) Brightness Sun altitude
Rises 02:19:31 0° 356° (N) 2,501 7.8 -11.1°
Reaches altitude 10° 02:21:50 10° 342° (NNW) 1,619 7.0 -11.6°
Maximum altitude 02:24:39 23° 288° (WNW) 1,019 6.7 -12.2°
Drops below altitude 10° 02:27:26 10° 234° (SW) 1,604 7.5 -12.8°
Sets 02:29:43 0° 219° (SW) 2,471 8.2 -13.2°
